37P/Forbes (2011)

Japanese version
Home page
Updated on October 14, 2011

---------------------------------------------------------------------

* Profile

* Pictures

* Orbital Elements

Epoch 2011 Dec. 25.0 TT = JDT 2455920.5
T 2011 Dec. 11.02744 TT                                 MPC
q   1.5753112            (2000.0)            P               Q
n   0.15516690     Peri.  329.38941     +0.25342319     +0.96107901
a   3.4298094      Node   315.03106     -0.85301533     +0.16838145
e   0.5407001      Incl.    8.95580     -0.45622532     +0.21903157
P   6.35
From 459 observations 1999 Apr. 14-2011 Mar. 25, mean residual 0".7.
     Nongravitational parameters A1 = +0.42, A2 = -0.0277.

* Finding Charts

* Magnitudes Graph

        m1 = 9.0 + 5 log d + 20 log r

---------------------------------------------------------------------

The orbital elements are published on M.P.E.C. 2011-F23.
The charts are made with StellaNavigator Ver.8 (AstroArts).
The magnitudes graphs are made with Comet for Windows.

---------------------------------------------------------------------

Copyright(C) Seiichi Yoshida (comet@aerith.net). All rights reserved.